Regional Weather Roundup
Issued by NWS

Home | Current Version | Previous Version | Text Only | Print | Product List | Glossary Off
Versions: 1 2 3 4 5 6 7 8 9 10 11 12 13 14 15 16 17 18 19 20 21 22 23 24 25 26 27 28 29 30 31 32 33 34 35 36 37 38 39 40 41 42 43 44 45 46 47 48 49 50

000
ASUS45 KABQ 231001
RWRNM
WEATHER ROUNDUP FOR NEW MEXICO
NATIONAL WEATHER SERVICE ALBUQUERQUE NM
400 AM MDT THU OCT 23 2014

NOTE: "FAIR" MEANS FEW OR NO CLOUDS BELOW 12,000 FEET AGL WITH NO
       SIGNIFICANT WEATHER OR OBSTRUCTIONS TO VISION.

      THIS PRODUCT IS RELEASED AS TWO VERSIONS.  ONE VERSION NEAR
      THE TOP OF THE HOUR CONTAINING PRELIMINARY DATA FROM ALBUQUERQUE
      AND OTHER STATIONS.  A FINAL VERSION WITH ADDITIONAL DATA IS
      ISSUED ABOUT 10 MINUTES AFTER THE HOUR.

NMZ501-503-504-510>518-231100-
NORTHWEST PLATEAU/NORTHCENTRAL MOUNTAINS

CITY           SKY/WX    TMP DP  RH WIND       PRES   REMARKS
FARMINGTON     CLEAR     44  35  70 E7        30.22R
LOS ALAMOS     CLEAR     50  32  50 S6        30.29S
SANTA FE       CLEAR     46  35  65 N9        30.24S
TAOS           CLEAR     36  28  75 CALM      30.29F
ANGEL FIRE     FAIR      27  24  89 CALM      30.33F

$$
NMZ402-403-502-505>509-231100-
WESTCENTRAL MOUNTAINS/SOUTHWEST MOUNTAINS

CITY           SKY/WX    TMP DP  RH WIND       PRES   REMARKS
GALLUP         CLEAR     38  34  85 CALM      30.29S
SILVER CITY    CLEAR     50  46  87 N9        30.23F

$$
NMZ407-409-411-412-231100-
SOUTHERN DESERTS

CITY           SKY/WX    TMP DP  RH WIND       PRES   REMARKS
DEMING         CLEAR     51  49  92 NW6       30.17S
HOLLOMAN AFB   CLEAR     52  48  86 CALM      30.15S
T OR C         CLEAR     55  47  74 SW5       30.18S

$$
NMZ519>523-231100-
CENTRAL VALLEYS/CENTRAL HIGHLANDS

CITY           SKY/WX    TMP DP  RH WIND       PRES   REMARKS
ALBUQUERQUE    CLEAR     56  43  61 CALM      30.21S
DOUBLE EAGLE   CLEAR     44  40  86 N5        30.24S
MORIARTY ARPT  FAIR      36  33  90 N3        30.25S
CLINES CORNERS CLEAR     48  38  68 NW9       30.25F
BELEN          NOT AVBL
SOCORRO        FAIR      51  46  82 CALM      30.18F

$$
NMZ524>526-539-540-231100-
SOUTHCENTRAL MOUNTAINS

CITY           SKY/WX    TMP DP  RH WIND       PRES   REMARKS
RUIDOSO        CLEAR     48  41  76 W8        30.29F

$$
NMZ527>531-231100-
NORTHEAST HIGHLANDS/NORTHEAST PLAINS

CITY           SKY/WX    TMP DP  RH WIND       PRES   REMARKS
LAS VEGAS      CLEAR     41  32  70 S3        30.24S
RATON          CLEAR     39  36  89 NE7       30.20S WCI  34
CLAYTON        CLEAR     52  46  80 W8        30.12F

$$
NMZ532>537-231100-
EASTCENTRAL PLAINS

CITY           SKY/WX    TMP DP  RH WIND       PRES   REMARKS
TUCUMCARI      CLEAR     57  54  89 SW6       30.09S
CANNON AFB     FOG       51  51  98 W5        30.13F VSB 1/4
CLOVIS AIRPORT CLOUDY    57  54  88 S6        30.15F

$$
NMZ028-029-538-231100-
SOUTHEAST PLAINS

CITY           SKY/WX    TMP DP  RH WIND       PRES   REMARKS
ROSWELL        CLOUDY    58  57  97 S6        30.11F FOG
CARLSBAD       FOG       60  58  92 S7        30.10S VSB 1/4
HOBBS          FOG       55  55 100 S8        30.13F VSB<1/4


$$



USA.gov is the U.S. government's official web portal to all federal, state and local government web resources and services.